Weather History for Kalispell, MT

Change the Weather History Date:

Saturday, April 6, 2013

  Actual Average Record
Temperature  
Mean Temperature 44 °F 42 °F  
Max Temperature 54 °F 53 °F 72 °F (1971)
Min Temperature 34 °F 30 °F 17 °F (1936)
Degree Days  
Heating Degree Days 21 23  
Month to date heating degree days 109 144  
Since 1 July heating degree days 6289 6915  
Cooling Degree Days 0 0  
Month to date cooling degree days 0 0  
Year to date cooling degree days 0 0  
Moisture  
Dew Point 36 °F    
Average Humidity 62    
Maximum Humidity 83    
Minimum Humidity 41    
Precipitation  
Precipitation 0.02 in 0.04 in 0.60 in (2006)
Month to date precipitation 0.08 0.23  
Year to date precipitation 2.03 3.62  
Snow  
Snow 0.00 in - - ()
Month to date snowfall 0.0  
Year to date snowfall 8.3  
Since 1 July snowfall 17.1  
Snow Depth 0.00 in    
Sea Level Pressure  
Sea Level Pressure 29.82 in    
Wind  
Wind Speed 9 mph (South)    
Max Wind Speed 24 mph    
Max Gust Speed 33 mph    
Visibility 10 miles    
Events Rain    
T = Trace of Precipitation, MM = Missing Value Source: NWS Daily Summary

Daily Weather History Graph

Daily Weather History Graph

Search for Another Location

Airport:

Trip Planner

Search our weather history database for the weather conditions in past years. The results will help you decide how hot, cold, wet, or windy it might be!

Date:

Astronomy

Apr. 06, 2013 Rise Set
Actual Time 7:04 AM MDT 8:15 PM MDT
Civil Twilight 6:32 AM MDT 8:47 PM MDT
Nautical Twilight 5:53 AM MDT 9:26 PM MDT
Astronomical Twilight 5:12 AM MDT 10:07 PM MDT
Moon 5:06 AM MDT (4/6) 4:33 PM MDT (4/6)
Length of Visible Light 14h 15m
Length of Day
13h 11m
Waning Crescent, 14% of the Moon is Illuminated
Apr 6
Waning Crescent
Apr 10
New
Apr 18
First Quarter
Apr 25
Full
May 2
Last Quarter

Hourly Weather History & Observations

Time (MDT) Temp. Windchill Dew Point Humidity Pressure Visibility Wind Dir Wind Speed Gust Speed Precip Events Conditions
12:55 AM 46.0 °F 41.9 °F 37.0 °F 71% 29.86 in 10.0 mi South 8.1 mph - N/A   Overcast
1:55 AM 43.0 °F 40.3 °F 37.0 °F 80% 29.86 in 10.0 mi South 4.6 mph - N/A   Mostly Cloudy
2:55 AM 44.1 °F 40.1 °F 37.9 °F 79% 29.85 in 10.0 mi South 6.9 mph - N/A   Overcast
3:55 AM 45.0 °F 40.1 °F 37.0 °F 74% 29.83 in 10.0 mi SSE 9.2 mph - N/A   Mostly Cloudy
4:55 AM 43.0 °F 39.5 °F 36.0 °F 76% 29.83 in 10.0 mi SSE 5.8 mph - N/A   Mostly Cloudy
5:55 AM 43.0 °F 39.5 °F 36.0 °F 76% 29.82 in 10.0 mi South 5.8 mph - N/A   Overcast
6:55 AM 43.0 °F 39.5 °F 37.0 °F 80% 29.81 in 10.0 mi SSW 5.8 mph - N/A   Overcast
7:55 AM 44.1 °F 39.0 °F 37.9 °F 79% 29.82 in 10.0 mi SSE 9.2 mph - N/A   Overcast
8:55 AM 45.0 °F 39.7 °F 39.0 °F 80% 29.83 in 10.0 mi SSE 10.4 mph - N/A   Overcast
9:55 AM 46.0 °F 40.2 °F 39.0 °F 76% 29.82 in 10.0 mi SSE 12.7 mph - N/A   Overcast
10:55 AM 46.9 °F - 39.9 °F 77% 29.82 in 10.0 mi SSE 15.0 mph 20.7 mph 0.00 in   Overcast
11:41 AM 46.4 °F 40.1 °F 39.2 °F 76% 29.80 in 10.0 mi SE 15.0 mph - 0.00 in Rain Light Rain
11:52 AM 46.4 °F 40.4 °F 41.0 °F 81% 29.80 in 10.0 mi SE 13.8 mph - 0.00 in Rain Light Rain
11:55 AM 46.0 °F 39.9 °F 39.9 °F 79% 29.83 in 10.0 mi SE 13.8 mph - 0.00 in Rain Light Rain
12:20 PM 46.4 °F 40.4 °F 42.8 °F 87% 29.80 in 10.0 mi SE 13.8 mph - 0.01 in Rain Light Rain
12:29 PM 48.2 °F - 42.8 °F 82% 29.80 in 10.0 mi SE 12.7 mph - 0.01 in Rain Light Rain
12:55 PM 48.0 °F - 44.1 °F 86% 29.81 in 10.0 mi SSE 9.2 mph - 0.01 in   Overcast
1:55 PM 52.0 °F - 37.0 °F 57% 29.79 in 10.0 mi SSW 16.1 mph 20.7 mph N/A   Mostly Cloudy
2:55 PM 53.1 °F - 30.9 °F 43% 29.79 in 10.0 mi WSW 16.1 mph 31.1 mph N/A   Mostly Cloudy
3:55 PM 53.1 °F - 33.1 °F 47% 29.80 in 10.0 mi SSW 20.7 mph 25.3 mph N/A   Partly Cloudy
4:55 PM 52.0 °F - 30.0 °F 43% 29.81 in 10.0 mi West 13.8 mph 26.5 mph 0.00 in Rain Light Rain
5:55 PM 52.0 °F - 28.0 °F 40% 29.80 in 10.0 mi WSW 18.4 mph 32.2 mph 0.00 in   Mostly Cloudy
6:55 PM 46.9 °F - 34.0 °F 61% 29.82 in 10.0 mi Variable 5.8 mph - N/A   Overcast
7:55 PM 43.0 °F 36.8 °F 35.1 °F 74% 29.84 in 10.0 mi WSW 11.5 mph 24.2 mph 0.01 in Rain Light Rain
8:55 PM 41.0 °F 36.4 °F 32.0 °F 70% 29.85 in 10.0 mi SW 6.9 mph 23.0 mph 0.00 in   Partly Cloudy
9:55 PM 41.0 °F 37.1 °F 34.0 °F 76% 29.87 in 10.0 mi West 5.8 mph - N/A   Mostly Cloudy
10:55 PM 42.1 °F - 32.0 °F 67% 29.86 in 10.0 mi Calm Calm - N/A   Mostly Cloudy
11:55 PM 36.0 °F - 30.9 °F 82% 29.86 in 10.0 mi Calm Calm - N/A   Clear